Back to catalog

DELTA 1 R/B

AliveSSO
NORAD 3767·ROCKET BODY·🇺🇸 United States

Launched Feb 26, 1969 from Cape Canaveral Space Force Station

Loading…

Next Passes (next 24 hours)

TLE

FreshSource: Space-Track

Epoch: Sep 14, 2026, 12:32 UTC

1 03767U 69016B   26257.52234316 -.00000020  00000-0  14106-3 0  9991
2 03767 101.3686 267.1858 0049726 160.3153 354.7208 12.51547084628006

Track DELTA 1 R/B in real time with AllMySat

Download on the App Store